Вернуться в каталог

DELTA 1 R/B

АктивенLEO
NORAD 50·ROCKET BODY·🇺🇸 United States

Запущен Aug 12, 1960 с Cape Canaveral Space Force Station

Loading…

Ближайшие Пролёты (ближайшие 24 часа)

TLE

СвежийSource: Space-Track

Эпоха: Sep 9, 2026, 01:38 UTC

1 00050U 60009B   26252.06829295 -.00000040  00000-0  41980-3 0  9998
2 00050  47.2299 261.3630 0114431 265.0391  93.7327 12.20169702947945

Отслеживайте DELTA 1 R/B в реальном времени с AllMySat

Download on the App Store